Weather in Dalneye

Russia / The Kabardino-Balkar Republic     43°55′32″N   44°17′19″E
temp.,
°C
wind,
m/s
gust,
m/s
humid.,
%
clouds,
%
prec.,
mm/h
press.,
hPa
HPBL,
m
2 march, tue
tue200:00+2sw1278100 0.0 102922
03:00+1sw128399 0.0 102922
06:000wsw228742 0.0 102921
09:00+3w227123 0.0 1029286
12:00+7wnw23550 0.0 10271012
15:00+8w24460 0.0 10251455
18:00+5nw33600 0.0 102439
21:00+2nw22810 0.0 102527
3 march, wed
wed300:00+2sw23830 0.0 102327
03:00+1nw128631 0.0 102222
06:00+1wsw1189100 0.0 102024
09:00+4sw2276100 0.0 1020182
12:00+5wsw1165100 0.0 1018712
15:00+7wsw355899 0.1 10181218
18:00+2nw61088100 0.3 1021839
21:00+2wnw51180100 0.4 1025797
4 march, thu
thu400:000nw4128284 0.0 1026732
03:00−1wnw3117955 0.0 1028563
06:00−1w38800 0.0 1028305
09:00+2w35600 0.0 1028713
12:00+6wsw34480 0.0 10261277
15:00+7sw23440 0.0 10241249
18:00+4ssw22560 0.0 102422
21:00+2ssw11690 0.0 102422
5 march, fri
fri500:00+1e01700 0.0 102322
03:00+1ese11680 0.0 102222
06:000se11680 0.0 102222
09:00+4sse23550 0.0 1021278
12:00+8se34400 0.0 1019723
15:00+10se33370 0.0 1019742
18:00+7ese33520 0.0 102027
21:00+4se34570 0.0 102143
6 march, sat
sat600:00+3sse22620 0.0 102022
03:00+3s22670 0.0 101922
06:00+2ssw23680 0.0 101822
09:00+7s345611 0.0 1017167
12:00+13sse343421 0.0 1015442
15:00+16sse462944 0.0 1013538
18:00+11se233991 0.0 101322
21:00+9nne345096 0.0 101439